owner,sensor,date,latitude,longitude,air_temperature,qcFlag 
COMPS,ioos:station:USF.COMPS:TAR:1,2011-03-01T00:00:00Z,28.1560,-82.7580,23.6,1111122 
COMPS,ioos:station:USF.COMPS:TAR:1,2011-03-01T00:06:00Z,28.1560,-82.7580,23.18,1111122 
COMPS,ioos:station:USF.COMPS:TAR:1,2011-03-01T00:12:00Z,28.1560,-82.7580,23.3,1111122 
COMPS,ioos:station:USF.COMPS:TAR:1,2011-03-01T00:18:00Z,28.1560,-82.7580,23.21,1111122 
COMPS,ioos:station:USF.COMPS:TAR:1,2011-03-01T00:24:00Z,28.1560,-82.7580,23.02,1111122 
COMPS,ioos:station:USF.COMPS:TAR:1,2011-03-01T00:30:00Z,28.1560,-82.7580,22.79,1111122 
COMPS,ioos:station:USF.COMPS:TAR:1,2011-03-01T00:36:00Z,28.1560,-82.7580,22.77,1111122 
COMPS,ioos:station:USF.COMPS:TAR:1,2011-03-01T00:42:00Z,28.1560,-82.7580,22.77,1111122 
COMPS,ioos:station:USF.COMPS:TAR:1,2011-03-01T00:48:00Z,28.1560,-82.7580,22.66,1111122 
COMPS,ioos:station:USF.COMPS:TAR:1,2011-03-01T00:54:00Z,28.1560,-82.7580,22.48,1111122 
COMPS,ioos:station:USF.COMPS:TAR:1,2011-03-01T01:00:00Z,28.1560,-82.7580,22.5,1111122 
COMPS,ioos:station:USF.COMPS:TAR:1,2011-03-01T01:06:00Z,28.1560,-82.7580,22.61,1111122 
COMPS,ioos:station:USF.COMPS:TAR:1,2011-03-01T01:12:00Z,28.1560,-82.7580,22.49,1111122 
COMPS,ioos:station:USF.COMPS:TAR:1,2011-03-01T01:18:00Z,28.1560,-82.7580,22.25,1111122 
COMPS,ioos:station:USF.COMPS:TAR:1,2011-03-01T01:24:00Z,28.1560,-82.7580,22.27,1111122 
COMPS,ioos:station:USF.COMPS:TAR:1,2011-03-01T01:30:00Z,28.1560,-82.7580,22.33,1111122 
COMPS,ioos:station:USF.COMPS:TAR:1,2011-03-01T01:36:00Z,28.1560,-82.7580,22.32,1111122 
COMPS,ioos:station:USF.COMPS:TAR:1,2011-03-01T01:42:00Z,28.1560,-82.7580,22.22,1111122 
COMPS,ioos:station:USF.COMPS:TAR:1,2011-03-01T01:48:00Z,28.1560,-82.7580,22.13,1111122 
COMPS,ioos:station:USF.COMPS:TAR:1,2011-03-01T01:54:00Z,28.1560,-82.7580,22.19,1111122 
COMPS,ioos:station:USF.COMPS:TAR:1,2011-03-01T02:00:00Z,28.1560,-82.7580,22.2,1111122 
COMPS,ioos:station:USF.COMPS:TAR:1,2011-03-01T03:00:00Z,28.1560,-82.7580,22.0,1111122 
COMPS,ioos:station:USF.COMPS:TAR:1,2011-03-01T03:06:00Z,28.1560,-82.7580,21.88,1111122 
COMPS,ioos:station:USF.COMPS:TAR:1,2011-03-01T03:12:00Z,28.1560,-82.7580,21.82,1111122 
COMPS,ioos:station:USF.COMPS:TAR:1,2011-03-01T03:18:00Z,28.1560,-82.7580,21.76,1111122 
COMPS,ioos:station:USF.COMPS:TAR:1,2011-03-01T03:24:00Z,28.1560,-82.7580,21.97,1111122 
COMPS,ioos:station:USF.COMPS:TAR:1,2011-03-01T03:30:00Z,28.1560,-82.7580,21.8,1111122 
COMPS,ioos:station:USF.COMPS:TAR:1,2011-03-01T03:36:00Z,28.1560,-82.7580,21.69,1111122 
COMPS,ioos:station:USF.COMPS:TAR:1,2011-03-01T03:42:00Z,28.1560,-82.7580,21.69,1111122 
COMPS,ioos:station:USF.COMPS:TAR:1,2011-03-01T03:48:00Z,28.1560,-82.7580,21.69,1111122 
COMPS,ioos:station:USF.COMPS:TAR:1,2011-03-01T03:54:00Z,28.1560,-82.7580,21.85,1111122 
COMPS,ioos:station:USF.COMPS:TAR:1,2011-03-01T04:00:00Z,28.1560,-82.7580,21.9,1111122 
COMPS,ioos:station:USF.COMPS:TAR:1,2011-03-01T05:00:00Z,28.1560,-82.7580,21.3,1111122 
COMPS,ioos:station:USF.COMPS:TAR:1,2011-03-01T07:00:00Z,28.1560,-82.7580,21.7,1111122 
COMPS,ioos:station:USF.COMPS:TAR:1,2011-03-01T08:00:00Z,28.1560,-82.7580,21.7,1111122 
COMPS,ioos:station:USF.COMPS:TAR:1,2011-03-01T08:06:00Z,28.1560,-82.7580,21.93,1111122 
COMPS,ioos:station:USF.COMPS:TAR:1,2011-03-01T08:12:00Z,28.1560,-82.7580,21.83,1111122 
COMPS,ioos:station:USF.COMPS:TAR:1,2011-03-01T08:18:00Z,28.1560,-82.7580,21.74,1111122 
COMPS,ioos:station:USF.COMPS:TAR:1,2011-03-01T08:24:00Z,28.1560,-82.7580,21.76,1111122 
COMPS,ioos:station:USF.COMPS:TAR:1,2011-03-01T08:30:00Z,28.1560,-82.7580,21.68,1111122 
COMPS,ioos:station:USF.COMPS:TAR:1,2011-03-01T08:36:00Z,28.1560,-82.7580,21.76,1111122 
COMPS,ioos:station:USF.COMPS:TAR:1,2011-03-01T08:42:00Z,28.1560,-82.7580,21.69,1111122 
COMPS,ioos:station:USF.COMPS:TAR:1,2011-03-01T08:48:00Z,28.1560,-82.7580,21.69,1111122 
COMPS,ioos:station:USF.COMPS:TAR:1,2011-03-01T08:54:00Z,28.1560,-82.7580,21.69,1111122 
COMPS,ioos:station:USF.COMPS:TAR:1,2011-03-01T09:00:00Z,28.1560,-82.7580,21.7,1111122 
COMPS,ioos:station:USF.COMPS:TAR:1,2011-03-01T09:06:00Z,28.1560,-82.7580,21.87,1111122 
COMPS,ioos:station:USF.COMPS:TAR:1,2011-03-01T09:12:00Z,28.1560,-82.7580,21.87,1111122 
COMPS,ioos:station:USF.COMPS:TAR:1,2011-03-01T09:18:00Z,28.1560,-82.7580,21.82,1111122 
COMPS,ioos:station:USF.COMPS:TAR:1,2011-03-01T09:24:00Z,28.1560,-82.7580,21.86,1111122 
COMPS,ioos:station:USF.COMPS:TAR:1,2011-03-01T09:30:00Z,28.1560,-82.7580,21.78,1111122 
COMPS,ioos:station:USF.COMPS:TAR:1,2011-03-01T09:36:00Z,28.1560,-82.7580,21.9,1111122 
COMPS,ioos:station:USF.COMPS:TAR:1,2011-03-01T09:42:00Z,28.1560,-82.7580,21.89,1111122 
COMPS,ioos:station:USF.COMPS:TAR:1,2011-03-01T09:48:00Z,28.1560,-82.7580,21.82,1111122 
COMPS,ioos:station:USF.COMPS:TAR:1,2011-03-01T09:54:00Z,28.1560,-82.7580,21.82,1111122 
COMPS,ioos:station:USF.COMPS:TAR:1,2011-03-01T10:00:00Z,28.1560,-82.7580,21.8,1111122 
COMPS,ioos:station:USF.COMPS:TAR:1,2011-03-01T11:00:00Z,28.1560,-82.7580,22.0,1111122 
COMPS,ioos:station:USF.COMPS:TAR:1,2011-03-01T11:06:00Z,28.1560,-82.7580,21.97,1111122 
COMPS,ioos:station:USF.COMPS:TAR:1,2011-03-01T11:12:00Z,28.1560,-82.7580,21.96,1111122 
COMPS,ioos:station:USF.COMPS:TAR:1,2011-03-01T11:18:00Z,28.1560,-82.7580,21.84,1111122 
COMPS,ioos:station:USF.COMPS:TAR:1,2011-03-01T11:24:00Z,28.1560,-82.7580,21.97,1111122 
COMPS,ioos:station:USF.COMPS:TAR:1,2011-03-01T11:30:00Z,28.1560,-82.7580,21.83,1111122 
COMPS,ioos:station:USF.COMPS:TAR:1,2011-03-01T11:36:00Z,28.1560,-82.7580,21.83,1111122 
COMPS,ioos:station:USF.COMPS:TAR:1,2011-03-01T11:42:00Z,28.1560,-82.7580,21.9,1111122 
COMPS,ioos:station:USF.COMPS:TAR:1,2011-03-01T11:48:00Z,28.1560,-82.7580,21.82,1111122 
COMPS,ioos:station:USF.COMPS:TAR:1,2011-03-01T11:54:00Z,28.1560,-82.7580,21.8,1111122 
COMPS,ioos:station:USF.COMPS:TAR:1,2011-03-01T12:00:00Z,28.1560,-82.7580,21.8,1111122 
COMPS,ioos:station:USF.COMPS:TAR:1,2011-03-01T13:00:00Z,28.1560,-82.7580,21.6,1111122 
COMPS,ioos:station:USF.COMPS:TAR:1,2011-03-01T14:00:00Z,28.1560,-82.7580,21.6,1111122 
COMPS,ioos:station:USF.COMPS:TAR:1,2011-03-01T15:00:00Z,28.1560,-82.7580,22.6,1111122 
COMPS,ioos:station:USF.COMPS:TAR:1,2011-03-01T16:00:00Z,28.1560,-82.7580,27.4,1111122 
COMPS,ioos:station:USF.COMPS:TAR:1,2011-03-01T17:00:00Z,28.1560,-82.7580,24.4,1111122 
COMPS,ioos:station:USF.COMPS:TAR:1,2011-03-01T17:06:00Z,28.1560,-82.7580,24.86,1111122 
COMPS,ioos:station:USF.COMPS:TAR:1,2011-03-01T17:12:00Z,28.1560,-82.7580,24.34,1111122 
COMPS,ioos:station:USF.COMPS:TAR:1,2011-03-01T17:18:00Z,28.1560,-82.7580,24.77,1111122 
COMPS,ioos:station:USF.COMPS:TAR:1,2011-03-01T17:24:00Z,28.1560,-82.7580,25.63,1111122 
COMPS,ioos:station:USF.COMPS:TAR:1,2011-03-01T17:30:00Z,28.1560,-82.7580,26.46,1111122 
COMPS,ioos:station:USF.COMPS:TAR:1,2011-03-01T17:36:00Z,28.1560,-82.7580,26.37,1111122 
COMPS,ioos:station:USF.COMPS:TAR:1,2011-03-01T17:42:00Z,28.1560,-82.7580,25.47,1111122 
COMPS,ioos:station:USF.COMPS:TAR:1,2011-03-01T17:48:00Z,28.1560,-82.7580,24.74,1111122 
COMPS,ioos:station:USF.COMPS:TAR:1,2011-03-01T17:54:00Z,28.1560,-82.7580,25.66,1111122 
COMPS,ioos:station:USF.COMPS:TAR:1,2011-03-01T18:00:00Z,28.1560,-82.7580,25.7,1111122 
COMPS,ioos:station:USF.COMPS:TAR:1,2011-03-01T19:00:00Z,28.1560,-82.7580,25.7,1111122 
COMPS,ioos:station:USF.COMPS:TAR:1,2011-03-01T20:00:00Z,28.1560,-82.7580,26.0,1111122 
COMPS,ioos:station:USF.COMPS:TAR:1,2011-03-01T21:00:00Z,28.1560,-82.7580,24.6,1111122 
COMPS,ioos:station:USF.COMPS:TAR:1,2011-03-01T22:00:00Z,28.1560,-82.7580,23.6,1111122 
COMPS,ioos:station:USF.COMPS:TAR:1,2011-03-01T23:00:00Z,28.1560,-82.7580,22.6,1111122 
COMPS,ioos:station:USF.COMPS:TAR:1,2011-03-02T00:00:00Z,28.1560,-82.7580,21.9,1111122 
COMPS,ioos:station:USF.COMPS:TAR:1,2011-03-02T01:00:00Z,28.1560,-82.7580,21.1,1111122 
COMPS,ioos:station:USF.COMPS:TAR:1,2011-03-02T02:00:00Z,28.1560,-82.7580,19.5,1111122 
COMPS,ioos:station:USF.COMPS:TAR:1,2011-03-02T03:00:00Z,28.1560,-82.7580,18.4,1111122 
COMPS,ioos:station:USF.COMPS:TAR:1,2011-03-02T04:00:00Z,28.1560,-82.7580,17.3,1111122 
COMPS,ioos:station:USF.COMPS:TAR:1,2011-03-02T05:00:00Z,28.1560,-82.7580,16.7,1111122 
COMPS,ioos:station:USF.COMPS:TAR:1,2011-03-02T06:00:00Z,28.1560,-82.7580,16.3,1111122 
COMPS,ioos:station:USF.COMPS:TAR:1,2011-03-02T06:06:00Z,28.1560,-82.7580,16.16,1111122 
COMPS,ioos:station:USF.COMPS:TAR:1,2011-03-02T06:12:00Z,28.1560,-82.7580,16.07,1111122 
COMPS,ioos:station:USF.COMPS:TAR:1,2011-03-02T06:18:00Z,28.1560,-82.7580,16.03,1111122 
COMPS,ioos:station:USF.COMPS:TAR:1,2011-03-02T06:24:00Z,28.1560,-82.7580,16.1,1111122 
COMPS,ioos:station:USF.COMPS:TAR:1,2011-03-02T06:30:00Z,28.1560,-82.7580,15.93,1111122 
COMPS,ioos:station:USF.COMPS:TAR:1,2011-03-02T06:36:00Z,28.1560,-82.7580,15.83,1111122 
COMPS,ioos:station:USF.COMPS:TAR:1,2011-03-02T06:42:00Z,28.1560,-82.7580,15.76,1111122 
COMPS,ioos:station:USF.COMPS:TAR:1,2011-03-02T06:48:00Z,28.1560,-82.7580,15.76,1111122 
COMPS,ioos:station:USF.COMPS:TAR:1,2011-03-02T06:54:00Z,28.1560,-82.7580,15.73,1111122 
COMPS,ioos:station:USF.COMPS:TAR:1,2011-03-02T07:00:00Z,28.1560,-82.7580,15.7,1111122 
COMPS,ioos:station:USF.COMPS:TAR:1,2011-03-02T07:06:00Z,28.1560,-82.7580,15.49,1111122 
COMPS,ioos:station:USF.COMPS:TAR:1,2011-03-02T07:12:00Z,28.1560,-82.7580,15.48,1111122 
COMPS,ioos:station:USF.COMPS:TAR:1,2011-03-02T07:18:00Z,28.1560,-82.7580,15.45,1111122 
COMPS,ioos:station:USF.COMPS:TAR:1,2011-03-02T07:24:00Z,28.1560,-82.7580,15.4,1111122 
COMPS,ioos:station:USF.COMPS:TAR:1,2011-03-02T07:30:00Z,28.1560,-82.7580,15.3,1111122 
COMPS,ioos:station:USF.COMPS:TAR:1,2011-03-02T07:36:00Z,28.1560,-82.7580,15.21,1111122 
COMPS,ioos:station:USF.COMPS:TAR:1,2011-03-02T07:42:00Z,28.1560,-82.7580,15.22,1111122 
COMPS,ioos:station:USF.COMPS:TAR:1,2011-03-02T07:48:00Z,28.1560,-82.7580,15.21,1111122 
COMPS,ioos:station:USF.COMPS:TAR:1,2011-03-02T07:54:00Z,28.1560,-82.7580,15.21,1111122 
COMPS,ioos:station:USF.COMPS:TAR:1,2011-03-02T08:00:00Z,28.1560,-82.7580,15.2,1111122 
COMPS,ioos:station:USF.COMPS:TAR:1,2011-03-02T09:00:00Z,28.1560,-82.7580,15.0,1111122 
COMPS,ioos:station:USF.COMPS:TAR:1,2011-03-02T10:00:00Z,28.1560,-82.7580,14.8,1111122 
COMPS,ioos:station:USF.COMPS:TAR:1,2011-03-02T10:06:00Z,28.1560,-82.7580,14.68,1111122 
COMPS,ioos:station:USF.COMPS:TAR:1,2011-03-02T10:12:00Z,28.1560,-82.7580,14.68,1111122 
COMPS,ioos:station:USF.COMPS:TAR:1,2011-03-02T10:18:00Z,28.1560,-82.7580,14.67,1111122 
COMPS,ioos:station:USF.COMPS:TAR:1,2011-03-02T10:24:00Z,28.1560,-82.7580,14.69,1111122 
COMPS,ioos:station:USF.COMPS:TAR:1,2011-03-02T10:30:00Z,28.1560,-82.7580,14.59,1111122 
COMPS,ioos:station:USF.COMPS:TAR:1,2011-03-02T10:36:00Z,28.1560,-82.7580,14.53,1111122 
COMPS,ioos:station:USF.COMPS:TAR:1,2011-03-02T10:42:00Z,28.1560,-82.7580,14.51,1111122 
COMPS,ioos:station:USF.COMPS:TAR:1,2011-03-02T10:48:00Z,28.1560,-82.7580,14.46,1111122 
COMPS,ioos:station:USF.COMPS:TAR:1,2011-03-02T10:54:00Z,28.1560,-82.7580,14.4,1111122 
COMPS,ioos:station:USF.COMPS:TAR:1,2011-03-02T11:00:00Z,28.1560,-82.7580,14.4,1111122 
COMPS,ioos:station:USF.COMPS:TAR:1,2011-03-02T11:06:00Z,28.1560,-82.7580,14.4,1111122 
COMPS,ioos:station:USF.COMPS:TAR:1,2011-03-02T11:12:00Z,28.1560,-82.7580,14.51,1111122 
COMPS,ioos:station:USF.COMPS:TAR:1,2011-03-02T11:18:00Z,28.1560,-82.7580,14.45,1111122 
COMPS,ioos:station:USF.COMPS:TAR:1,2011-03-02T11:24:00Z,28.1560,-82.7580,14.46,1111122 
COMPS,ioos:station:USF.COMPS:TAR:1,2011-03-02T11:30:00Z,28.1560,-82.7580,14.4,1111122 
COMPS,ioos:station:USF.COMPS:TAR:1,2011-03-02T11:36:00Z,28.1560,-82.7580,14.4,1111122 
COMPS,ioos:station:USF.COMPS:TAR:1,2011-03-02T11:42:00Z,28.1560,-82.7580,14.4,1111122 
COMPS,ioos:station:USF.COMPS:TAR:1,2011-03-02T11:48:00Z,28.1560,-82.7580,14.39,1111122 
COMPS,ioos:station:USF.COMPS:TAR:1,2011-03-02T11:54:00Z,28.1560,-82.7580,14.39,1111122 
COMPS,ioos:station:USF.COMPS:TAR:1,2011-03-02T12:00:00Z,28.1560,-82.7580,14.26,1111122 
COMPS,ioos:station:USF.COMPS:TAR:1,2011-03-02T12:06:00Z,28.1560,-82.7580,14.26,1111122 
COMPS,ioos:station:USF.COMPS:TAR:1,2011-03-02T12:12:00Z,28.1560,-82.7580,14.26,1111122 
COMPS,ioos:station:USF.COMPS:TAR:1,2011-03-02T12:18:00Z,28.1560,-82.7580,14.29,1111122 
COMPS,ioos:station:USF.COMPS:TAR:1,2011-03-02T12:24:00Z,28.1560,-82.7580,14.43,1111122 
COMPS,ioos:station:USF.COMPS:TAR:1,2011-03-02T12:30:00Z,28.1560,-82.7580,14.5,1111122 
COMPS,ioos:station:USF.COMPS:TAR:1,2011-03-02T12:36:00Z,28.1560,-82.7580,14.7,1111122 
COMPS,ioos:station:USF.COMPS:TAR:1,2011-03-02T12:42:00Z,28.1560,-82.7580,14.81,1111122 
COMPS,ioos:station:USF.COMPS:TAR:1,2011-03-02T12:48:00Z,28.1560,-82.7580,15.0,1111122 
COMPS,ioos:station:USF.COMPS:TAR:1,2011-03-02T12:54:00Z,28.1560,-82.7580,15.2,1111122 
COMPS,ioos:station:USF.COMPS:TAR:1,2011-03-02T13:00:00Z,28.1560,-82.7580,15.2,1111122 
COMPS,ioos:station:USF.COMPS:TAR:1,2011-03-02T14:00:00Z,28.1560,-82.7580,16.9,1111122 
COMPS,ioos:station:USF.COMPS:TAR:1,2011-03-02T15:00:00Z,28.1560,-82.7580,19.6,1111122 
COMPS,ioos:station:USF.COMPS:TAR:1,2011-03-02T15:06:00Z,28.1560,-82.7580,20.47,1111122 
COMPS,ioos:station:USF.COMPS:TAR:1,2011-03-02T15:12:00Z,28.1560,-82.7580,20.58,1111122 
COMPS,ioos:station:USF.COMPS:TAR:1,2011-03-02T15:18:00Z,28.1560,-82.7580,20.49,1111122 
COMPS,ioos:station:USF.COMPS:TAR:1,2011-03-02T15:24:00Z,28.1560,-82.7580,20.67,1111122 
COMPS,ioos:station:USF.COMPS:TAR:1,2011-03-02T15:30:00Z,28.1560,-82.7580,20.79,1111122 
COMPS,ioos:station:USF.COMPS:TAR:1,2011-03-02T15:36:00Z,28.1560,-82.7580,20.98,1111122 
COMPS,ioos:station:USF.COMPS:TAR:1,2011-03-02T15:42:00Z,28.1560,-82.7580,21.48,1111122 
COMPS,ioos:station:USF.COMPS:TAR:1,2011-03-02T15:48:00Z,28.1560,-82.7580,21.74,1111122 
COMPS,ioos:station:USF.COMPS:TAR:1,2011-03-02T15:54:00Z,28.1560,-82.7580,22.04,1111122 
COMPS,ioos:station:USF.COMPS:TAR:1,2011-03-02T16:00:00Z,28.1560,-82.7580,22.0,1111122 
COMPS,ioos:station:USF.COMPS:TAR:1,2011-03-02T16:06:00Z,28.1560,-82.7580,21.72,1111122 
COMPS,ioos:station:USF.COMPS:TAR:1,2011-03-02T16:12:00Z,28.1560,-82.7580,21.31,1111122 
COMPS,ioos:station:USF.COMPS:TAR:1,2011-03-02T16:18:00Z,28.1560,-82.7580,21.6,1111122 
COMPS,ioos:station:USF.COMPS:TAR:1,2011-03-02T16:24:00Z,28.1560,-82.7580,21.91,1111122 
COMPS,ioos:station:USF.COMPS:TAR:1,2011-03-02T16:30:00Z,28.1560,-82.7580,22.06,1111122 
COMPS,ioos:station:USF.COMPS:TAR:1,2011-03-02T16:36:00Z,28.1560,-82.7580,22.23,1111122 
COMPS,ioos:station:USF.COMPS:TAR:1,2011-03-02T16:42:00Z,28.1560,-82.7580,22.37,1111122 
COMPS,ioos:station:USF.COMPS:TAR:1,2011-03-02T16:48:00Z,28.1560,-82.7580,22.37,1111122 
COMPS,ioos:station:USF.COMPS:TAR:1,2011-03-02T16:54:00Z,28.1560,-82.7580,22.91,1111122 
COMPS,ioos:station:USF.COMPS:TAR:1,2011-03-02T17:00:00Z,28.1560,-82.7580,22.9,1111122 
COMPS,ioos:station:USF.COMPS:TAR:1,2011-03-02T18:00:00Z,28.1560,-82.7580,23.6,1111122 
COMPS,ioos:station:USF.COMPS:TAR:1,2011-03-02T19:00:00Z,28.1560,-82.7580,23.8,1111122 
COMPS,ioos:station:USF.COMPS:TAR:1,2011-03-02T20:00:00Z,28.1560,-82.7580,24.9,1111122 
COMPS,ioos:station:USF.COMPS:TAR:1,2011-03-02T21:00:00Z,28.1560,-82.7580,25.0,1111122 
COMPS,ioos:station:USF.COMPS:TAR:1,2011-03-02T22:00:00Z,28.1560,-82.7580,25.1,1111122 
COMPS,ioos:station:USF.COMPS:TAR:1,2011-03-02T23:00:00Z,28.1560,-82.7580,23.9,1111122 
COMPS,ioos:station:USF.COMPS:TAR:1,2011-03-03T00:00:00Z,28.1560,-82.7580,22.5,1111122 
COMPS,ioos:station:USF.COMPS:TAR:1,2011-03-03T01:00:00Z,28.1560,-82.7580,21.3,1111122 
COMPS,ioos:station:USF.COMPS:TAR:1,2011-03-03T02:00:00Z,28.1560,-82.7580,20.1,1111122 
COMPS,ioos:station:USF.COMPS:TAR:1,2011-03-03T02:06:00Z,28.1560,-82.7580,19.85,1111122 
COMPS,ioos:station:USF.COMPS:TAR:1,2011-03-03T02:12:00Z,28.1560,-82.7580,19.78,1111122 
COMPS,ioos:station:USF.COMPS:TAR:1,2011-03-03T02:18:00Z,28.1560,-82.7580,19.65,1111122 
COMPS,ioos:station:USF.COMPS:TAR:1,2011-03-03T02:24:00Z,28.1560,-82.7580,19.61,1111122 
COMPS,ioos:station:USF.COMPS:TAR:1,2011-03-03T02:30:00Z,28.1560,-82.7580,19.45,1111122 
COMPS,ioos:station:USF.COMPS:TAR:1,2011-03-03T02:36:00Z,28.1560,-82.7580,19.31,1111122 
COMPS,ioos:station:USF.COMPS:TAR:1,2011-03-03T02:42:00Z,28.1560,-82.7580,19.21,1111122 
COMPS,ioos:station:USF.COMPS:TAR:1,2011-03-03T02:48:00Z,28.1560,-82.7580,19.1,1111122 
COMPS,ioos:station:USF.COMPS:TAR:1,2011-03-03T02:54:00Z,28.1560,-82.7580,18.97,1111122 
COMPS,ioos:station:USF.COMPS:TAR:1,2011-03-03T03:00:00Z,28.1560,-82.7580,19.0,1111122 
COMPS,ioos:station:USF.COMPS:TAR:1,2011-03-03T04:00:00Z,28.1560,-82.7580,18.3,1111122 
COMPS,ioos:station:USF.COMPS:TAR:1,2011-03-03T04:06:00Z,28.1560,-82.7580,18.17,1111122 
COMPS,ioos:station:USF.COMPS:TAR:1,2011-03-03T04:12:00Z,28.1560,-82.7580,18.14,1111122 
COMPS,ioos:station:USF.COMPS:TAR:1,2011-03-03T04:18:00Z,28.1560,-82.7580,18.05,1111122 
COMPS,ioos:station:USF.COMPS:TAR:1,2011-03-03T04:24:00Z,28.1560,-82.7580,18.04,1111122 
COMPS,ioos:station:USF.COMPS:TAR:1,2011-03-03T04:30:00Z,28.1560,-82.7580,17.93,1111122 
COMPS,ioos:station:USF.COMPS:TAR:1,2011-03-03T04:36:00Z,28.1560,-82.7580,17.92,1111122 
COMPS,ioos:station:USF.COMPS:TAR:1,2011-03-03T04:42:00Z,28.1560,-82.7580,17.8,1111122 
COMPS,ioos:station:USF.COMPS:TAR:1,2011-03-03T04:48:00Z,28.1560,-82.7580,17.69,1111122 
COMPS,ioos:station:USF.COMPS:TAR:1,2011-03-03T04:54:00Z,28.1560,-82.7580,17.54,1111122 
COMPS,ioos:station:USF.COMPS:TAR:1,2011-03-03T05:00:00Z,28.1560,-82.7580,17.5,1111122 
COMPS,ioos:station:USF.COMPS:TAR:1,2011-03-03T06:00:00Z,28.1560,-82.7580,16.5,1111122 
COMPS,ioos:station:USF.COMPS:TAR:1,2011-03-03T08:00:00Z,28.1560,-82.7580,15.4,1111122 
COMPS,ioos:station:USF.COMPS:TAR:1,2011-03-03T09:00:00Z,28.1560,-82.7580,15.0,1111122 
COMPS,ioos:station:USF.COMPS:TAR:1,2011-03-03T09:06:00Z,28.1560,-82.7580,14.98,1111122 
COMPS,ioos:station:USF.COMPS:TAR:1,2011-03-03T09:12:00Z,28.1560,-82.7580,14.97,1111122 
COMPS,ioos:station:USF.COMPS:TAR:1,2011-03-03T09:18:00Z,28.1560,-82.7580,14.93,1111122 
COMPS,ioos:station:USF.COMPS:TAR:1,2011-03-03T09:24:00Z,28.1560,-82.7580,14.87,1111122 
COMPS,ioos:station:USF.COMPS:TAR:1,2011-03-03T09:30:00Z,28.1560,-82.7580,14.8,1111122 
COMPS,ioos:station:USF.COMPS:TAR:1,2011-03-03T09:36:00Z,28.1560,-82.7580,14.83,1111122 
COMPS,ioos:station:USF.COMPS:TAR:1,2011-03-03T09:42:00Z,28.1560,-82.7580,14.8,1111122 
COMPS,ioos:station:USF.COMPS:TAR:1,2011-03-03T09:48:00Z,28.1560,-82.7580,14.8,1111122 
COMPS,ioos:station:USF.COMPS:TAR:1,2011-03-03T09:54:00Z,28.1560,-82.7580,14.8,1111122 
COMPS,ioos:station:USF.COMPS:TAR:1,2011-03-03T10:00:00Z,28.1560,-82.7580,14.8,1111122 
COMPS,ioos:station:USF.COMPS:TAR:1,2011-03-03T11:00:00Z,28.1560,-82.7580,14.8,1111122 
COMPS,ioos:station:USF.COMPS:TAR:1,2011-03-03T12:00:00Z,28.1560,-82.7580,14.6,1111122 
COMPS,ioos:station:USF.COMPS:TAR:1,2011-03-03T13:00:00Z,28.1560,-82.7580,15.9,1111122 
COMPS,ioos:station:USF.COMPS:TAR:1,2011-03-03T15:00:00Z,28.1560,-82.7580,22.1,1111122 
COMPS,ioos:station:USF.COMPS:TAR:1,2011-03-03T16:00:00Z,28.1560,-82.7580,22.6,1111122 
COMPS,ioos:station:USF.COMPS:TAR:1,2011-03-03T17:00:00Z,28.1560,-82.7580,23.6,1111122 
COMPS,ioos:station:USF.COMPS:TAR:1,2011-03-03T17:06:00Z,28.1560,-82.7580,24.02,1111122 
COMPS,ioos:station:USF.COMPS:TAR:1,2011-03-03T17:12:00Z,28.1560,-82.7580,24.12,1111122 
COMPS,ioos:station:USF.COMPS:TAR:1,2011-03-03T17:18:00Z,28.1560,-82.7580,24.11,1111122 
COMPS,ioos:station:USF.COMPS:TAR:1,2011-03-03T17:24:00Z,28.1560,-82.7580,24.48,1111122 
COMPS,ioos:station:USF.COMPS:TAR:1,2011-03-03T17:30:00Z,28.1560,-82.7580,24.16,1111122 
COMPS,ioos:station:USF.COMPS:TAR:1,2011-03-03T17:36:00Z,28.1560,-82.7580,23.74,1111122 
COMPS,ioos:station:USF.COMPS:TAR:1,2011-03-03T17:42:00Z,28.1560,-82.7580,24.19,1111122 
COMPS,ioos:station:USF.COMPS:TAR:1,2011-03-03T17:48:00Z,28.1560,-82.7580,24.07,1111122 
COMPS,ioos:station:USF.COMPS:TAR:1,2011-03-03T17:54:00Z,28.1560,-82.7580,24.1,1111122 
COMPS,ioos:station:USF.COMPS:TAR:1,2011-03-03T18:00:00Z,28.1560,-82.7580,24.1,1111122 
COMPS,ioos:station:USF.COMPS:TAR:1,2011-03-03T18:06:00Z,28.1560,-82.7580,24.57,1111122 
COMPS,ioos:station:USF.COMPS:TAR:1,2011-03-03T18:12:00Z,28.1560,-82.7580,24.66,1111122 
COMPS,ioos:station:USF.COMPS:TAR:1,2011-03-03T18:18:00Z,28.1560,-82.7580,24.99,1111122 
COMPS,ioos:station:USF.COMPS:TAR:1,2011-03-03T18:24:00Z,28.1560,-82.7580,25.37,1111122 
COMPS,ioos:station:USF.COMPS:TAR:1,2011-03-03T18:30:00Z,28.1560,-82.7580,25.06,1111122 
COMPS,ioos:station:USF.COMPS:TAR:1,2011-03-03T18:36:00Z,28.1560,-82.7580,24.76,1111122 
COMPS,ioos:station:USF.COMPS:TAR:1,2011-03-03T18:42:00Z,28.1560,-82.7580,25.08,1111122 
COMPS,ioos:station:USF.COMPS:TAR:1,2011-03-03T18:48:00Z,28.1560,-82.7580,24.81,1111122 
COMPS,ioos:station:USF.COMPS:TAR:1,2011-03-03T18:54:00Z,28.1560,-82.7580,24.9,1111122 
COMPS,ioos:station:USF.COMPS:TAR:1,2011-03-03T19:00:00Z,28.1560,-82.7580,24.9,1111122 
COMPS,ioos:station:USF.COMPS:TAR:1,2011-03-03T19:06:00Z,28.1560,-82.7580,25.0,1111122 
COMPS,ioos:station:USF.COMPS:TAR:1,2011-03-03T19:12:00Z,28.1560,-82.7580,24.88,1111122 
COMPS,ioos:station:USF.COMPS:TAR:1,2011-03-03T19:18:00Z,28.1560,-82.7580,24.82,1111122 
COMPS,ioos:station:USF.COMPS:TAR:1,2011-03-03T19:24:00Z,28.1560,-82.7580,24.59,1111122 
COMPS,ioos:station:USF.COMPS:TAR:1,2011-03-03T19:30:00Z,28.1560,-82.7580,24.59,1111122 
COMPS,ioos:station:USF.COMPS:TAR:1,2011-03-03T19:36:00Z,28.1560,-82.7580,24.86,1111122 
COMPS,ioos:station:USF.COMPS:TAR:1,2011-03-03T19:42:00Z,28.1560,-82.7580,25.0,1111122 
COMPS,ioos:station:USF.COMPS:TAR:1,2011-03-03T19:48:00Z,28.1560,-82.7580,25.11,1111122 
COMPS,ioos:station:USF.COMPS:TAR:1,2011-03-03T19:54:00Z,28.1560,-82.7580,25.09,1111122 
COMPS,ioos:station:USF.COMPS:TAR:1,2011-03-03T20:00:00Z,28.1560,-82.7580,25.1,1111122 
COMPS,ioos:station:USF.COMPS:TAR:1,2011-03-03T21:00:00Z,28.1560,-82.7580,25.2,1111122 
COMPS,ioos:station:USF.COMPS:TAR:1,2011-03-03T22:00:00Z,28.1560,-82.7580,24.5,1111122 
COMPS,ioos:station:USF.COMPS:TAR:1,2011-03-03T23:00:00Z,28.1560,-82.7580,23.5,1111122 
COMPS,ioos:station:USF.COMPS:TAR:1,2011-03-04T00:00:00Z,28.1560,-82.7580,22.2,1111122 
COMPS,ioos:station:USF.COMPS:TAR:1,2011-03-04T01:00:00Z,28.1560,-82.7580,21.2,1111122 
COMPS,ioos:station:USF.COMPS:TAR:1,2011-03-04T02:00:00Z,28.1560,-82.7580,20.0,1111122 
COMPS,ioos:station:USF.COMPS:TAR:1,2011-03-04T03:00:00Z,28.1560,-82.7580,19.2,1111122 
COMPS,ioos:station:USF.COMPS:TAR:1,2011-03-04T04:00:00Z,28.1560,-82.7580,18.4,1111122 
COMPS,ioos:station:USF.COMPS:TAR:1,2011-03-04T05:00:00Z,28.1560,-82.7580,17.6,1111122 
COMPS,ioos:station:USF.COMPS:TAR:1,2011-03-04T05:06:00Z,28.1560,-82.7580,17.45,1111122 
COMPS,ioos:station:USF.COMPS:TAR:1,2011-03-04T05:12:00Z,28.1560,-82.7580,17.39,1111122 
COMPS,ioos:station:USF.COMPS:TAR:1,2011-03-04T05:18:00Z,28.1560,-82.7580,17.37,1111122 
COMPS,ioos:station:USF.COMPS:TAR:1,2011-03-04T05:24:00Z,28.1560,-82.7580,17.29,1111122 
COMPS,ioos:station:USF.COMPS:TAR:1,2011-03-04T05:30:00Z,28.1560,-82.7580,17.22,1111122 
COMPS,ioos:station:USF.COMPS:TAR:1,2011-03-04T05:36:00Z,28.1560,-82.7580,17.12,1111122 
COMPS,ioos:station:USF.COMPS:TAR:1,2011-03-04T05:42:00Z,28.1560,-82.7580,17.13,1111122 
COMPS,ioos:station:USF.COMPS:TAR:1,2011-03-04T05:48:00Z,28.1560,-82.7580,17.04,1111122 
COMPS,ioos:station:USF.COMPS:TAR:1,2011-03-04T05:54:00Z,28.1560,-82.7580,16.98,1111122 
COMPS,ioos:station:USF.COMPS:TAR:1,2011-03-04T06:00:00Z,28.1560,-82.7580,17.0,1111122 
COMPS,ioos:station:USF.COMPS:TAR:1,2011-03-04T06:06:00Z,28.1560,-82.7580,16.84,1111122 
COMPS,ioos:station:USF.COMPS:TAR:1,2011-03-04T06:12:00Z,28.1560,-82.7580,16.8,1111122 
COMPS,ioos:station:USF.COMPS:TAR:1,2011-03-04T06:18:00Z,28.1560,-82.7580,16.7,1111122 
COMPS,ioos:station:USF.COMPS:TAR:1,2011-03-04T06:24:00Z,28.1560,-82.7580,16.61,1111122 
COMPS,ioos:station:USF.COMPS:TAR:1,2011-03-04T06:30:00Z,28.1560,-82.7580,16.46,1111122 
COMPS,ioos:station:USF.COMPS:TAR:1,2011-03-04T06:36:00Z,28.1560,-82.7580,16.36,1111122 
COMPS,ioos:station:USF.COMPS:TAR:1,2011-03-04T06:42:00Z,28.1560,-82.7580,16.18,1111122 
COMPS,ioos:station:USF.COMPS:TAR:1,2011-03-04T06:48:00Z,28.1560,-82.7580,16.1,1111122 